Location: Garßen
(52.6597°N, 10.1343°E)
Time: 20:55:29
(UTC+00:00)

Daily predictions for brighter satellites

Satellite Brightness Start Highest point End
(mag) Time Altitude Azimuth Time Altitude Azimuth Time Altitude Azimuth
BREEZE-M DEB (TANK) 3.4 15:39:46 10° WSW 15:42:12 50° SSE 15:47:53 10° E
ARIANE 5 R/B 3.2 15:41:54 10° ESE 15:46:23 33° ENE 15:50:57 10° N
Cosmos 2084 Rocket 3.3 15:42:46 10° NW 15:47:00 74° NE 15:51:12 10° SE
Intercosmos 24 3.7 15:43:51 10° N 15:47:46 60° ENE 15:51:16 10° SSE
NOSS 3-2 (A) 3.4 15:43:26 10° SSW 15:48:26 62° SE 15:54:31 10° NE
Cosmos 1782 3.2 15:46:29 10° SSE 15:49:47 35° E 15:53:06 10° NNE
SL-08 ROCKET BODY 4.4 15:44:10 10° N 15:50:05 61° ENE 15:56:02 10° SSE
NOSS 3-2 (C) 4.1 15:46:03 10° S 15:50:25 29° ESE 15:55:27 10° ENE
Cosmos 1656 4.0 15:45:21 10° S 15:50:47 52° ESE 15:56:17 10° NE
Cosmos 1758 Rocket 3.5 15:46:38 10° N 15:50:56 59° ENE 15:55:09 10° SSE
Cosmos 2034 Rocket 4.4 15:45:08 10° SSW 15:51:27 70° WNW 15:57:51 10° N
Cosmos 2208 Rocket 4.0 15:47:43 10° NNW 15:52:56 89° E 15:58:07 10° SSE
Cosmos 2098 Rocket 3.7 15:51:12 10° SSE 15:55:14 40° E 15:59:55 10° NNE
NOSS 2-2 (E) 3.4 15:52:48 10° SSW 15:55:54 39° SE 15:58:41 11° ENE
Cosmos 724 4.4 15:50:23 10° NW 15:56:31 87° SW 16:02:26 10° SE
Meteor 1-20 Rocket 4.4 15:52:16 10° N 15:57:35 48° ENE 16:02:51 10° SE
CZ-4C R/B 2.9 15:52:40 10° NW 15:59:19 84° NE 16:07:45 10° SE
Cosmos 2266 Rocket 4.2 15:54:36 10° N 16:00:34 48° ENE 16:06:25 10° SE
Cosmos 405 Rocket 2.7 15:59:11 10° NNW 16:02:25 65° W 16:05:36 10° S
CBERS-1 4.0 16:00:26 10° SSE 16:05:33 84° ENE 16:10:42 10° NNW
SMAP 3.2 16:02:27 10° SE 16:06:58 52° ENE 16:11:31 10° N
Cosmos 2297 Rocket 2.4 16:02:51 10° NNW 16:08:34 81° WSW 16:14:13 10° SSE
Landsat 7 4.0 16:07:22 10° SE 16:11:49 46° ENE 16:16:16 10° N
[s.n.66845] 3.5 16:11:10 10° N 16:12:42 14° NE 16:12:44 14° NE
[s.n.66847] 3.5 16:11:37 10° N 16:13:10 14° NE 16:13:11 14° NE
Cosmos 1626 Rocket 3.8 16:08:54 10° NNW 16:13:14 75° W 16:17:31 10° S
[s.n.66846] 3.5 16:12:02 10° N 16:13:35 14° NE 16:13:36 14° NE
Meteor 1-28 Rocket 3.0 16:10:50 10° NNE 16:14:08 53° E 16:17:24 10° S
[s.n.66843] 3.5 16:12:33 10° N 16:14:08 14° NE 16:14:08 14° NE
[s.n.66844] 3.5 16:12:59 10° N 16:14:34 14° NE 16:14:34 14° NE
[s.n.66842] 3.5 16:13:31 10° N 16:15:06 14° NE 16:15:06 14° NE
[s.n.66841] 3.5 16:13:57 10° N 16:15:33 14° NE 16:15:33 14° NE
[s.n.66840] 3.4 16:14:27 10° N 16:16:02 15° NE 16:16:02 15° NE
[s.n.66838] 3.4 16:14:55 10° N 16:16:31 15° NE 16:16:31 15° NE
[s.n.66839] 3.4 16:15:24 10° N 16:17:01 15° NE 16:17:01 15° NE
NOSS 2-2 (C) 3.1 16:14:18 10° WSW 16:17:21 52° NW 16:19:48 14° NE
[s.n.66837] 3.4 16:15:50 10° N 16:17:27 15° NE 16:17:27 15° NE
[s.n.66836] 3.4 16:16:20 10° N 16:17:56 15° NE 16:17:56 15° NE
[s.n.66835] 3.4 16:16:50 10° N 16:18:27 15° NE 16:18:27 15° NE
[s.n.66834] 3.4 16:17:19 10° N 16:18:56 15° NE 16:18:56 15° NE
[s.n.66833] 3.4 16:17:45 10° N 16:19:22 15° NE 16:19:22 15° NE
[s.n.66832] 3.4 16:18:16 10° N 16:19:54 16° NE 16:19:54 16° NE
[s.n.66831] 3.4 16:18:41 10° N 16:20:19 16° NE 16:20:19 16° NE
[s.n.66830] 3.4 16:19:07 10° N 16:20:45 16° NE 16:20:45 16° NE
[s.n.66828] 3.4 16:19:32 10° N 16:21:10 16° NE 16:21:10 16° NE
[s.n.66829] 3.4 16:20:03 10° N 16:21:42 16° NE 16:21:42 16° NE
[s.n.66827] 3.3 16:20:35 10° N 16:22:13 16° NE 16:22:13 16° NE
[s.n.66826] 3.3 16:21:05 10° N 16:22:43 16° NE 16:22:43 16° NE
Cosmos 1315 Rocket 4.0 16:19:31 10° SW 16:23:10 41° WNW 16:26:50 10° N
[s.n.66825] 3.3 16:21:30 10° N 16:23:09 17° NE 16:23:09 17° NE
[s.n.66824] 3.3 16:22:01 10° N 16:23:40 17° NE 16:23:40 17° NE
[s.n.66823] 3.3 16:22:31 10° N 16:24:10 17° NE 16:24:10 17° NE
Radarsat 4.5 16:19:19 10° SSE 16:24:27 69° ENE 16:29:37 10° NNW
Cosmos 1606 Rocket 4.3 16:20:36 10° SSE 16:24:31 32° E 16:28:30 10° NNE
[s.n.66822] 3.3 16:23:00 10° N 16:24:39 17° NE 16:24:39 17° NE
ATLAS CENTAUR R/B 3.7 16:22:25 10° WNW 16:24:57 21° WSW 16:27:26 10° S
[s.n.66821] 3.3 16:23:28 10° N 16:25:07 17° NE 16:25:07 17° NE
Thor Agena Rocket 3.6 16:22:46 10° SSE 16:27:59 87° WSW 16:33:10 10° NNW
Cosmos 2219 3.7 16:23:03 10° NNW 16:28:23 37° NE 16:33:42 10° ESE
Cosmos 1503 Rocket 4.2 16:23:52 10° S 16:28:56 52° ESE 16:33:39 12° NE
CENTAUR R/B 3.1 16:24:21 10° WSW 16:30:19 55° NNW 16:36:56 14° NE
USA 290 3.7 16:29:14 10° NW 16:32:21 41° WSW 16:35:26 10° S
SL-16 R/B 2.6 16:26:12 10° NNE 16:32:28 87° WNW 16:38:41 10° SSW
Cosmos 1484 Rocket 3.8 16:29:20 10° S 16:32:41 43° W 16:36:04 10° NNW
GEOS 3 Rocket 4.0 16:28:50 15° NE 16:33:08 50° SE 16:38:21 10° SSW
Cosmos 1544 Rocket 3.7 16:29:16 10° SSW 16:33:40 78° W 16:38:09 10° N
AQUARIUS 4.2 16:30:39 10° SSE 16:34:56 55° ENE 16:39:16 10° N
Cosmos 1844 Rocket 4.0 16:31:03 10° NNW 16:35:19 21° NNE 16:37:19 18° ENE
Lacrosse 5 rocket 1.5 16:31:58 10° W 16:35:35 47° NNW 16:37:41 22° NE
Cosmos 1980 Rocket 3.4 16:31:46 10° SSE 16:35:58 22° ESE 16:37:57 18° ENE
Resurs 1-3 4.5 16:33:44 10° ESE 16:37:17 26° ENE 16:40:51 10° N
Meteor 1-25 Rocket 4.2 16:32:23 10° N 16:38:15 75° ENE 16:44:00 10° SSE
Meteor 1-5 Rocket 4.2 16:33:05 10° N 16:38:19 52° ENE 16:43:37 10° SSE
Cosmos 1354 Rocket 4.3 16:33:35 10° S 16:38:35 45° ESE 16:42:34 16° NE
BREEZE M DEB (TANK) 3.7 16:39:02 10° SSW 16:40:39 16° SSE 16:41:17 15° SE
Lacrosse 4 Rocket 3.1 16:37:21 10° W 16:40:39 23° NW 16:43:48 10° NNE
CORIOLIS 4.3 16:36:54 10° SSE 16:42:14 78° WSW 16:47:37 10° NNW
IRIDIUM 104 4.3 16:37:42 10° N 16:42:58 87° E 16:48:12 10° S
Cosmos 2263 Rocket 2.2 16:37:55 10° NNW 16:43:33 58° NE 16:49:09 10° SE
Cosmos 2228 4.4 16:40:42 10° SW 16:44:39 37° WNW 16:48:38 10° N
Cosmos 1777 Rocket 3.9 16:39:52 10° SSW 16:45:06 79° ESE 16:49:52 13° NNE
Spot 4 Rocket 4.5 16:41:14 10° SE 16:45:54 37° ENE 16:50:36 10° N
Cosmos 1726 Rocket 4.0 16:44:03 10° SSE 16:48:24 42° E 16:51:54 15° NNE
CZ-2D R/B 2.6 16:45:44 10° SSE 16:48:51 86° E 16:52:02 10° NNW
Okean 1-7 Rocket 3.6 16:45:51 10° NNW 16:50:17 83° W 16:54:39 10° S
USA 238 DEB 4.4 16:45:55 10° S 16:51:05 29° ESE 16:53:47 22° ENE
USA 238 4.4 16:46:02 10° S 16:51:12 29° ESE 16:53:52 22° ENE
Cosmos 44 Rocket 4.4 16:47:25 10° NW 16:51:49 28° NNE 16:53:32 23° NE
IRIDIUM 114 4.4 16:46:51 10° N 16:52:06 81° W 16:57:19 10° S
Cosmos 1602 Rocket 4.3 16:47:51 10° NNW 16:52:11 56° W 16:56:26 10° S
NOSS 3 (A) 3.9 16:50:07 10° NW 16:52:18 61° NE 16:52:32 56° ENE
ERS-1 4.4 16:49:28 10° SSE 16:54:29 86° ENE 16:59:28 10° NNW
Cosmos 1461 2.6 16:52:44 10° SW 16:56:39 78° SE 16:58:30 30° NE
USA 215 3.4 16:53:50 21° ENE 16:58:15 62° N 17:04:42 10° WNW
Cosmos 1933 3.1 16:54:38 10° S 16:58:27 72° E 17:01:21 17° NNE
Cosmos 1943 Rocket 4.2 16:57:25 10° NNW 16:59:07 11° N 17:00:50 10° NNE
Cosmos 2227 Rocket 2.4 16:54:20 10° NNW 16:59:59 75° WSW 17:05:36 10° SSE
SKYMED 2 4.2 16:58:49 29° ENE 17:00:01 34° E 17:03:59 10° SSE
IRS-1C 4.3 16:54:54 10° S 17:00:13 75° WSW 17:05:35 10° NNW
YAOGAN 1 2.9 16:56:57 10° SE 17:00:56 40° ENE 17:04:56 10° N
Cosmos-2242 4.2 16:57:41 10° SE 17:00:13 23° ESE 17:00:13 23° ESE
NOSS 2-3 (E) 3.9 16:59:53 10° S 17:03:11 33° SE 17:03:38 32° ESE
NOSS 2-3 (D) 4.0 17:00:35 10° S 17:03:52 31° SE 17:04:14 31° ESE
Cosmos 1486 Rocket 4.4 16:59:45 10° SW 17:04:56 63° WNW 17:09:39 13° NNE
SJ-12 4.1 17:01:16 10° S 17:05:01 67° WSW 17:08:50 10° NNW
Cosmos 2369 Rocket 4.2 17:01:52 10° WNW 17:05:40 18° NNW 17:09:29 10° NNE
Cosmos 2151 4.3 17:02:19 10° NNW 17:06:14 41° W 17:10:09 10° SSW
Cosmos 1655 Rocket 3.9 17:05:55 10° N 17:12:12 82° E 17:18:25 10° SSE
Meteor 2-10 4.0 17:08:05 10° N 17:13:24 63° ENE 17:18:53 10° SSE
Cosmos 1697 Rocket 2.6 17:10:16 10° SSW 17:15:52 78° ESE 17:19:15 25° NE
Cosmos 1953 Rocket 3.4 17:11:36 10° N 17:16:04 81° E 17:20:31 10° SSE
Cosmos 990 Rocket 3.8 17:11:04 10° SSW 17:16:10 75° ESE 17:19:09 26° NNE
CZ-4 R/B 4.2 17:12:30 10° SSE 17:16:27 82° ENE 17:20:25 10° NNW
MOS 1 Rocket 3.8 17:12:54 10° S 17:17:50 70° WSW 17:23:05 10° NNW
Aureole 1 Rocket 3.8 17:14:15 10° S 17:18:34 41° ESE 17:19:37 37° ENE
Cosmos 2278 Rocket 4.2 17:16:37 10° NNW 17:18:48 12° N 17:19:59 11° NNE
NOSS 2-2 (D) 4.1 17:22:06 10° W 17:24:51 28° NNW 17:25:11 28° NNW
ARIANE 5 R/B 3.6 17:20:24 10° S 17:25:16 47° W 17:30:16 10° NNW
Cosmos 1825 Rocket 4.4 17:21:06 10° NNW 17:25:21 51° W 17:29:31 10° S
Resurs 01 Rocket 3.6 17:29:46 15° N 17:29:46 15° N 17:30:41 10° N
Cosmos 1680 Rocket 3.7 17:26:38 10° NNW 17:31:38 44° NE 17:31:45 44° ENE
NOAA 6 3.9 17:27:37 10° SSE 17:32:37 60° ENE 17:37:39 10° N
USA 81 3.9 17:27:47 10° N 17:33:06 82° E 17:38:22 10° S
CZ-2D R/B 3.4 17:32:16 10° SSE 17:36:28 82° WSW 17:40:37 10° NNW
Radarsat Rocket 4.5 17:30:04 10° SSE 17:38:08 82° ENE 17:45:18 10° NNW
IRAS Rocket 4.1 17:33:30 10° SSE 17:38:59 79° ENE 17:44:28 10° NNW
NOSS 3-2 (A) 4.1 17:34:15 10° W 17:39:29 45° NNW 17:42:25 28° NNE
Gbstr 26 Del rocket 3.2 17:36:03 10° SW 17:39:37 47° S 17:39:37 47° S
Cosmos 1844 4.3 17:35:01 10° NNW 17:39:50 37° NE 17:39:50 37° NE
Meteor 2-2 Rocket 4.2 17:34:57 10° S 17:40:26 56° E 17:41:51 44° NE
NOSS 3-2 (C) 3.4 17:35:23 10° WSW 17:40:38 69° NW 17:43:16 35° NE
SPOT 1/Viking Rocket 3.9 17:37:02 10° S 17:42:13 67° WSW 17:47:26 10° NNW
Cosmos 1076 Rocket 4.3 17:39:14 10° NNW 17:43:25 51° W 17:47:36 10° S
PSLV R/B 3.2 17:43:07 51° SSE 17:44:06 88° ENE 17:48:12 10° NNW
[s.n.66845] 4.4 17:43:14 10° NW 17:43:44 14° NW 17:43:44 14° NW
[s.n.66847] 4.4 17:43:41 10° NW 17:44:11 14° NW 17:44:11 14° NW
[s.n.66846] 4.4 17:44:07 10° NW 17:44:36 14° NW 17:44:36 14° NW
SJ-7 4.3 17:47:21 73° WNW 17:47:21 73° WNW 17:50:56 10° NNW
Cosmos 2082 3.6 17:41:33 10° NNW 17:47:19 87° ENE 17:50:42 26° SSE
[s.n.66843] 4.5 17:44:40 10° NW 17:45:09 14° NW 17:45:09 14° NW
COSMO-SKYMED 1 3.4 17:49:12 36° S 17:49:12 36° S 17:51:46 10° S
[s.n.66844] 4.5 17:45:07 10° NW 17:45:35 14° NW 17:45:35 14° NW
SL-19 R/B 4.2 17:42:20 10° SSE 17:47:46 89° WSW 17:53:33 10° NNW
[s.n.66842] 4.5 17:45:39 10° NW 17:46:06 14° NW 17:46:06 14° NW
Cosmos 2058 Rocket 2.9 17:46:21 10° S 17:50:44 81° ESE 17:50:44 81° ESE
Cosmos 2227 4.3 17:50:32 10° NNW 17:55:43 53° NE 17:55:43 53° NE
Meteor 2-11 Rocket 4.3 17:53:19 10° N 17:59:30 73° ENE 18:05:39 10° SSE
Nadezhda 2 Rocket 4.4 17:55:03 10° N 18:01:14 88° W 18:07:20 10° S
Meteor 1-26 Rocket 3.9 17:59:23 10° S 18:04:47 85° E 18:05:35 66° NNE
GEOS 3 Rocket 4.2 18:09:53 43° N 18:11:09 52° NW 18:16:21 10° WSW
Cosmos 1553 Rocket 3.8 18:05:56 10° S 18:12:07 83° E 18:14:51 36° NNE
Cosmos 2219 3.8 18:07:11 10° NW 18:12:46 55° WSW 18:17:57 12° S
Lacrosse 5 rocket 3.1 18:09:31 10° WNW 18:11:16 24° NW 18:11:16 24° NW
Cosmos 1980 Rocket 2.1 18:13:41 10° SW 18:19:21 79° WNW 18:19:44 75° N
Cosmos 1844 Rocket 3.1 18:14:36 10° NNW 18:18:59 51° N 18:18:59 51° N
USA 281 4.0 18:22:44 34° NNE 18:22:44 34° NNE 18:27:09 10° NNW
CENTAUR R/B 3.8 18:16:12 10° WNW 18:22:29 37° N 18:24:02 34° NNE
Cosmos 1745 Rocket 4.0 18:19:23 10° N 18:24:47 67° NNE 18:24:47 67° NNE
Cosmos 2263 Rocket 3.9 18:22:14 10° NW 18:27:10 31° WSW 18:32:06 10° SSW
Cosmos 1898 Rocket 4.0 18:26:14 10° SSW 18:30:11 53° SW 18:30:11 53° SW
Cosmos 2369 4.2 18:26:33 10° SSW 18:30:42 50° SSW 18:30:42 50° SSW
Cosmos 44 Rocket 4.4 18:28:47 10° NW 18:32:08 41° NW 18:32:08 41° NW
USA 215 3.1 18:41:10 80° N 18:41:10 80° N 18:47:39 10° WNW
USA 238 DEB 3.5 18:35:05 10° SW 18:41:14 79° NW 18:41:14 79° NW
USA 238 3.5 18:35:11 10° SW 18:41:19 80° WNW 18:41:19 80° WNW
Cosmos 1943 Rocket 4.4 18:41:30 10° NNW 18:42:28 13° N 18:42:28 13° N
Cosmos 1697 Rocket 4.2 18:55:36 10° W 19:00:25 28° NW 19:00:59 28° NNW
CENTAUR R/B 4.4 20:07:37 10° NW 20:11:08 29° NNW 20:11:08 29° NNW
